TimeMST,TemperatureF,Dew PointF,Humidity,Sea Level PressureIn,VisibilityMPH,Wind Direction,Wind SpeedMPH,Gust SpeedMPH,PrecipitationIn,Events,Conditions,WindDirDegrees,DateUTC
12:56 AM,-15.0,-20.0,78,30.59,-9999.0,NW,12.7,-,N/A,,Unknown,310,2013-12-06 07:56:00
1:56 AM,-17.0,-22.0,78,30.61,-9999.0,NW,8.1,-,N/A,,Unknown,310,2013-12-06 08:56:00
2:56 AM,-17.0,-22.0,78,30.61,-9999.0,NW,10.4,-,N/A,,Unknown,310,2013-12-06 09:56:00
3:56 AM,-16.1,-20.9,79,30.64,-9999.0,WNW,5.8,-,N/A,,Unknown,290,2013-12-06 10:56:00
4:56 AM,-16.1,-22.0,74,30.66,-9999.0,WNW,9.2,-,N/A,,Unknown,300,2013-12-06 11:56:00
5:56 AM,-17.0,-22.0,78,30.67,-9999.0,NW,11.5,-,N/A,,Unknown,310,2013-12-06 12:56:00
6:56 AM,-18.0,-23.1,78,30.69,-9999.0,NW,11.5,-,N/A,,Unknown,310,2013-12-06 13:56:00
7:56 AM,-17.0,-22.0,78,30.71,-9999.0,NW,5.8,-,N/A,,Unknown,320,2013-12-06 14:56:00
8:56 AM,-14.1,-20.0,75,30.73,-9999.0,WNW,8.1,-,N/A,,Unknown,300,2013-12-06 15:56:00
9:56 AM,-11.0,-17.0,75,30.74,-9999.0,WNW,12.7,-,N/A,,Unknown,300,2013-12-06 16:56:00
10:56 AM,-9.0,-16.1,71,30.75,-9999.0,WNW,12.7,-,N/A,,Unknown,300,2013-12-06 17:56:00
11:56 AM,-8.0,-16.1,68,30.74,-9999.0,WNW,11.5,-,N/A,,Unknown,300,2013-12-06 18:56:00
12:56 PM,-7.1,-15.0,68,30.71,-9999.0,NW,11.5,-,N/A,,Unknown,310,2013-12-06 19:56:00
1:56 PM,-7.1,-14.1,72,30.71,-9999.0,NW,12.7,-,N/A,,Unknown,320,2013-12-06 20:56:00
2:56 PM,-7.1,-14.1,72,30.72,-9999.0,WNW,10.4,-,N/A,,Unknown,290,2013-12-06 21:56:00
3:56 PM,-9.9,-16.1,74,30.74,-9999.0,WNW,4.6,-,N/A,,Unknown,300,2013-12-06 22:56:00
4:56 PM,-11.9,-18.0,74,30.75,-9999.0,NNW,8.1,-,N/A,,Unknown,330,2013-12-06 23:56:00
5:56 PM,-14.1,-18.9,79,30.78,-9999.0,WNW,4.6,-,N/A,,Unknown,290,2013-12-07 00:56:00
6:56 PM,-15.0,-20.9,75,30.79,-9999.0,WNW,5.8,-,N/A,,Unknown,290,2013-12-07 01:56:00
7:56 PM,-16.1,-20.9,79,30.81,-9999.0,WNW,6.9,-,N/A,,Unknown,290,2013-12-07 02:56:00
8:56 PM,-17.0,-22.0,78,30.80,-9999.0,West,6.9,-,N/A,,Unknown,270,2013-12-07 03:56:00
9:56 PM,-18.0,-23.1,78,30.81,-9999.0,WNW,8.1,-,N/A,,Unknown,290,2013-12-07 04:56:00
10:56 PM,-17.0,-23.1,74,30.79,-9999.0,WNW,13.8,-,N/A,,Unknown,300,2013-12-07 05:56:00
11:56 PM,-18.0,-24.0,74,30.79,-9999.0,WNW,10.4,-,N/A,,Unknown,300,2013-12-07 06:56:00